Location: Fort Wayne
(41.1310°N, 85.1290°W)
Time: 19:43:21
(UTC-04:00)

Gbstr 26 Del rocket - Visible Passes

Search period start: 02 September 2014 00:00
Search period end: 12 September 2014 00:00
Orbit: 494 x 1278 km, 51.8° (Epoch: 01 September)

Date Brightness Start Highest point End Pass type
(mag) Time Alt. Az. Time Alt. Az. Time Alt. Az.
02 Sep 4.7 05:38:52 16° SSW 05:43:29 48° SE 05:50:23 10° ENE visible
03 Sep 6.2 03:54:17 11° SE 03:55:13 11° ESE 03:56:54 10° E visible
03 Sep 4.4 05:37:01 21° SSW 05:41:03 60° SE 05:48:09 10° ENE visible
04 Sep 5.9 03:52:22 15° ESE 03:52:34 15° ESE 03:56:03 10° E visible
04 Sep 4.1 05:35:05 26° SW 05:38:40 73° SE 05:45:53 10° ENE visible
05 Sep 5.7 03:50:23 20° ESE 03:50:23 20° ESE 03:54:27 10° ENE visible
05 Sep 4.0 05:33:06 30° SW 05:36:19 88° SE 05:43:36 10° NE visible
06 Sep 5.4 03:48:21 25° ESE 03:48:21 25° ESE 03:52:35 10° ENE visible
06 Sep 4.0 05:31:04 33° WSW 05:34:01 79° NW 05:41:17 10° NE visible
07 Sep 5.3 03:46:16 29° E 03:46:16 29° E 03:50:33 10° ENE visible
07 Sep 4.1 05:28:59 33° WSW 05:31:46 67° NNW 05:38:58 10° NE visible
08 Sep 5.1 03:44:09 33° E 03:44:09 33° E 03:48:25 10° ENE visible
08 Sep 4.3 05:26:51 33° W 05:29:33 57° NNW 05:36:39 10° NE visible
09 Sep 5.0 03:41:59 36° E 03:41:59 36° E 03:46:12 10° ENE visible
09 Sep 4.5 05:24:41 31° W 05:27:22 50° NNW 05:34:21 10° NE visible
10 Sep 5.0 03:39:47 38° ENE 03:39:47 38° ENE 03:43:57 10° ENE visible
10 Sep 4.7 05:22:29 28° WNW 05:25:13 44° NNW 05:32:04 10° NE visible
11 Sep 5.0 03:37:34 38° ENE 03:37:34 38° ENE 03:41:40 10° NE visible
11 Sep 4.9 05:20:16 26° WNW 05:23:06 40° NNW 05:29:48 10° NE visible
